Tracking 29892 objects as of 21-Nov-2024
HD Live streaming from Space Station
objects crossing your sky now

STARLINK-31710

Track STARLINK-31710 now!
10-day predictions
STARLINK-31710 is classified as:


NORAD ID: 59378
Int'l Code: 2024-062E
Perigee: 481.4 km
Apogee: 483.4 km
Inclination: 53.2 °
Period: 94.1 minutes
Semi major axis: 6853 km
RCS: Unknown
Launch date: April 2, 2024
Source: United States (US)
Launch site: AIR FORCE WESTERN TEST RANGE (AFWTR)
Your satellite tracking list
Your tracking list is empty




NASA's NSSDC Master Catalog

Two Line Element Set (TLE):
1 59378U 24062E   24325.33427843  .00000574  00000-0  31517-4 0  9993
2 59378  53.1620 299.1228 0001457  72.0626 288.0534 15.30196702 37008
Source of the keplerian elements: AFSPC